Regional Weather Roundup
Issued by NWS

Home | Current Version | Previous Version | Graphics & Text | Print | Product List | Glossary Off
Versions: 1 2 3 4 5 6 7 8 9 10 11 12 13 14 15 16 17 18 19 20 21 22 23 24 25 26 27 28 29 30 31 32 33 34 35 36 37 38 39 40 41 42 43 44 45 46 47 48 49 50

000
ASUS43 KDTX 260410
RWRMI
MICHIGAN HOURLY REGIONAL WEATHER ROUNDUP
NATIONAL WEATHER SERVICE DETROIT/PONTIAC MI
1200 AM EDT FRI MAY 26 2017

NOTE: "FAIR" INDICATES FEW OR NO CLOUDS BELOW 12,000 FEET WITH NO
SIGNIFICANT WEATHER AND/OR OBSTRUCTION TO VISIBILITY.

MIZ047>049-052>055-059>063-066>070-074>076-081>083-260500-
SOUTHEAST LOWER MICHIGAN

CITY           SKY/WX    TMP DP  RH WIND       PRES   REMARKS
ADRIAN         CLOUDY    59  56  89 NW6       29.67R
ALMA           CLOUDY    56  55  94 NW3       29.69R
ANN ARBOR      CLOUDY    58  56  93 NW7       29.65R
BAD AXE        CLOUDY    49  49 100 N5        29.65R FOG
CARO           CLOUDY    53  52  96 NW9       29.65R FOG
DETROIT CITY   CLOUDY    56  55  97 NW6       29.62R
DETROIT        CLOUDY    59  55  87 NW9       29.64R
FLINT          CLOUDY    54  53  97 N9        29.65R
GROSSE ILE     CLOUDY    59  55  88 NW6       29.63R
HILLSDALE      CLOUDY    57  54  88 W8        29.68R
HOWELL         CLOUDY    55  52  89 N6        29.66R

CITY           SKY/WX    TMP DP  RH WIND       PRES   REMARKS
JACKSON        CLOUDY    59  54  83 NW6       29.67R
LAMBERTVILLE   CLOUDY    59  56  89 W6        29.65R
LANSING        CLOUDY    58  52  80 N9        29.68R
LAPEER         CLOUDY    54  54  99 NW7       29.64R FOG
MASON          CLOUDY    57  55  93 N3        29.67R
MONROE         CLOUDY    60  57  90 NW3       29.63R
MT. CLEMENS    CLOUDY    56  56 100 NW5       29.61R
PONTIAC        CLOUDY    55  53  93 NW9       29.63R
PORT HOPE        N/A     49  48  97 VRB3      29.62R
PORT HURON     CLOUDY    54  52  94 CALM      29.61S
TRI CITIES     CLOUDY    55  54  96 N9        29.68R
MIDLAND        CLOUDY    55  53  92 N3        29.67R
TROY           CLOUDY    56  54  90 NW6       29.65R
SAGINAW HB     CLOUDY    54  50  87 N7        29.66R FOG
$$
MIZ043>046-050>051-056>058-064>065-071>073-077>080-260500-
SOUTHWEST LOWER MICHIGAN

CITY           SKY/WX    TMP DP  RH WIND       PRES   REMARKS
BATTLE CREEK   CLOUDY    58  55  90 NW7       29.70R
BENTON HARBOR  CLOUDY    51  48  89 NW3       29.74R
BIG RAPIDS     CLOUDY    57  51  81 CALM      29.71R
COLDWATER      CLOUDY    57  55  91 W7        29.69R
FREMONT        FAIR      53  51  94 NW3       29.71R
HOLLAND        CLEAR     52  50  93 NW3       29.72R
GRAND RAPIDS   CLOUDY    62  54  74 NW7       29.69R
IONIA          CLOUDY    59  53  81 N5        29.68R
KALAMAZOO      MOCLDY    56  50  80 NW7       29.70R
LUDINGTON      CLEAR     51  51  99 CALM      29.72R
MARSHALL       CLOUDY    59  58  98 W3        29.69R
MOUNT PLEASANT CLOUDY    56  51  82 N5        29.68S
MUSKEGON       CLEAR     57  52  83 N7        29.71R
SOUTH HAVEN    CLEAR     51  50  97 W3        29.73R
$$
MIZ016>042-260500-
NORTHERN LOWER MICHIGAN

CITY           SKY/WX    TMP DP  RH WIND       PRES   REMARKS
ALPENA         CLOUDY    54  54 100 N9        29.69R
BEAVER ISLAND  CLOUDY    54  54  98 CALM      29.77R
BELLAIRE       CLOUDY    55  51  85 CALM      29.74R
CADILLAC       CLOUDY    53  50  89 N5        29.71S
CHARLEVOIX     CLOUDY    51  51 100 N3        29.77S
FRANKFORT      CLEAR     52  49  89 NE3       29.74R
GAYLORD        CLOUDY    54  50  86 VRB5      29.72R
GRAYLING       CLOUDY    54  51  90 NW5       29.72R
HARBOR SPRINGS CLOUDY    55  55  99 NE6       29.73S
HOUGHTON LAKE  CLOUDY    53  50  89 N7        29.71R
MANISTEE       CLEAR     53  50  89 CALM      29.72R
OSCODA         CLOUDY    54  53  96 N8        29.65S
PELLSTON       CLOUDY    55  52  89 N6        29.74R
ROGERS CITY    CLOUDY    49  48  99 CALM      29.72S
TRAVERSE CITY  CLOUDY    53  50  89 NE3       29.73R
$$
MIZ007>008-015-260500-
EASTERN UPPER MICHIGAN

CITY           SKY/WX    TMP DP  RH WIND       PRES   REMARKS
KINROSS        CLOUDY    55  54  96 N7        29.76R
MACKINAC ISLAN CLOUDY    53  53 100 N5        29.74S
NEWBERRY       CLOUDY    53  52  97 CALM      29.78R FOG
S. S. MARIE    CLOUDY    58  53  84 N3        29.75R
MUNISING         N/A     45  43  93 S3        29.78S
$$
MIZ004>006-011>014-085-260500-
CENTRAL UPPER MICHIGAN

CITY           SKY/WX    TMP DP  RH WIND       PRES   REMARKS
MANISTIQUE     CLOUDY    56  53  89 E5        29.77R
ESCANABA       CLEAR     54  51  90 N5        29.78R
MENOMINEE      CLEAR     52  50  93 NW3       29.79R
SAWYER-GWINN   CLEAR     47  43  84 CALM      29.79S
$$
MIZ001>003-009>011-084-260500-
WESTERN UPPER MICHIGAN

CITY           SKY/WX    TMP DP  RH WIND       PRES   REMARKS
IRON MOUNTAIN  CLEAR     51  47  86 CALM      29.78R
HOUGHTON       CLEAR     50  44  80 E6        29.77S
COPPER HARBOR    N/A     52  47  83 CALM      29.77R
IRONWOOD       CLEAR     58  47  66 E7        29.74R
$$

ABBREVIATIONS USED IN REMARKS
   TC - TEMPERATURE IN CELSIUS
  WCI - WIND CHILL INDEX
   HX - HEAT INDEX
  VSB - VISIBILITY




USA.gov is the U.S. government's official web portal to all federal, state and local government web resources and services.